Volver al catálogo

GLOBALSTAR M022

ActivoComunicacionesLEO
NORAD 25649·PAYLOAD·🇺🇸 United States

Lanzado Mar 15, 1999 desde Baikonur Cosmodrome

Loading…

Próximos Pases (próximas 24 horas)

TLE

ActualizadoSource: Space-Track

Época: Sep 14, 2026, 10:36 UTC

1 25649U 99012A   26257.44216640 -.00000064  00000-0  27697-3 0  9991
2 25649  52.0026 136.0071 0002766   1.6598 169.2571 12.02515869231029

Sigue GLOBALSTAR M022 en tiempo real con AllMySat

Download on the App Store